| time (UTC) | temp F | wind direction | speed knots | gust knots | rain 1hr in | rain 24hr in | rain mn in | humidity % | barometer mb |
| 20260503020301 | 56 | 135 | 0.0 | 0.0 | 0.00 | 0.00 | 0.00 | 88 | 992.7 |
| 20260503013528 | 57 | 68 | 0.0 | 0.0 | 0.00 | 0.00 | 0.00 | 88 | 992.7 |
| 20260503010300 | 57 | 112 | 0.0 | 0.0 | 0.00 | 0.00 | 0.00 | 88 | 993.1 |
| 20260503003527 | 57 | 45 | 0.0 | 0.0 | 0.00 | 0.00 | 0.00 | 88 | 993.0 |
| 20260503000301 | 58 | 45 | 0.0 | 0.0 | 0.00 | 0.00 | 0.00 | 88 | 993.2 |
| 20260502233528 | 58 | 112 | 0.0 | 0.0 | 0.00 | 0.00 | 0.00 | 87 | 993.3 |
| 20260502230301 | 59 | 112 | 0.0 | 0.0 | 0.00 | 0.00 | 0.00 | 87 | 993.2 |
| 20260502224331 | 59 | 112 | 0.0 | 0.0 | 0.00 | 0.00 | 0.00 | 87 | 993.3 |
| 20260502223527 | 59 | 112 | 0.0 | 0.0 | 0.00 | 0.00 | 0.00 | 87 | 993.3 |
| 20260502214330 | 59 | 135 | 0.0 | 0.0 | 0.00 | 0.00 | 0.00 | 87 | 993.1 |
| 20260502213527 | 59 | 135 | 0.0 | 0.0 | 0.00 | 0.00 | 0.00 | 87 | 993.1 |
| 20260502204329 | 60 | 68 | 0.0 | 0.0 | 0.00 | 0.00 | 0.00 | 85 | 993.0 |
| 20260502203526 | 60 | 68 | 0.0 | 0.0 | 0.00 | 0.00 | 0.00 | 85 | 993.0 |
| 20260502194329 | 62 | 158 | 0.0 | 0.0 | 0.00 | 0.00 | 0.00 | 85 | 992.7 |
| 20260502193526 | 62 | 158 | 0.0 | 0.0 | 0.00 | 0.00 | 0.00 | 84 | 992.7 |
| 20260502184330 | 64 | 158 | 0.0 | 0.0 | 0.00 | 0.00 | 0.00 | 83 | 992.6 |
| 20260502183527 | 64 | 158 | 0.0 | 0.0 | 0.00 | 0.00 | 0.00 | 83 | 992.7 |
| 20260502164329 | 67 | 158 | 0.0 | 0.0 | 0.00 | 0.00 | 0.00 | 79 | 992.6 |
| 20260502163527 | 67 | 158 | 0.0 | 0.0 | 0.00 | 0.00 | 0.00 | 80 | 992.7 |
| 20260502123525 | 72 | 158 | 0.0 | 0.0 | 0.00 | 0.00 | 0.00 | 69 | 994.2 |
| 20260502114329 | 68 | 170 | 0.9 | 2.6 | 0.00 | 0.00 | 0.00 | 75 | 994.4 |
| 20260502113526 | 68 | 164 | 0.0 | 0.0 | 0.00 | 0.00 | 0.00 | 77 | 994.7 |
| 20260502104329 | 66 | 58 | 0.0 | 0.0 | 0.00 | 0.00 | 0.00 | 72 | 996.2 |
| 20260502103526 | 68 | 158 | 0.0 | 0.0 | 0.00 | 0.00 | 0.00 | 67 | 996.0 |
| 20260502070305 | 66 | 338 | 0.0 | 0.0 | 0.00 | 0.00 | 0.00 | 68 | 995.2 |
| 20260502063524 | 65 | 338 | 0.0 | 0.0 | 0.00 | 0.00 | 0.00 | 69 | 995.2 |
| 20260502060303 | 65 | 338 | 0.0 | 0.0 | 0.00 | 0.00 | 0.00 | 68 | 995.1 |
| 20260502053524 | 65 | 0 | 0.0 | 0.0 | 0.00 | 0.00 | 0.00 | 68 | 995.0 |
| 20260502050303 | 65 | 338 | 0.0 | 0.0 | 0.00 | 0.00 | 0.00 | 67 | 995.1 |
| 20260502043524 | 65 | 0 | 0.0 | 0.0 | 0.00 | 0.00 | 0.00 | 66 | 995.1 |
| 20260502040303 | 65 | 45 | 0.0 | 0.0 | 0.00 | 0.00 | 0.00 | 66 | 995.1 |
| 20260502033524 | 66 | 338 | 0.0 | 0.0 | 0.00 | 0.00 | 0.00 | 66 | 995.2 |
| 20260502030303 | 66 | 338 | 0.0 | 0.0 | 0.00 | 0.00 | 0.00 | 66 | 995.2 |
| 20260502023525 | 66 | 338 | 0.0 | 0.0 | 0.00 | 0.00 | 0.00 | 65 | 995.2 |